Location: Gleizolles
(44.4833°N, 6.7667°E)
Time: 15:39:08
(UTC+00:00)

Tiros 1 - Pass Details

Date: 28 June 2024
Orbit: 624 x 656 km, 48.4° (Epoch: 13 July)

Event Time Altitude Azimuth Distance (km) Brightness Sun altitude
Rises 20:22:16 0° 213° (SSW) 2,893 10.4 -9.1°
Reaches altitude 10° 20:24:46 10° 203° (SSW) 1,987 9.4 -9.4°
Maximum altitude 20:28:46 30° 142° (SE) 1,111 7.8 -9.9°
Drops below altitude 10° 20:32:46 10° 80° (E) 1,995 9.4 -10.4°
Sets 20:35:17 0° 70° (ENE) 2,907 10.3 -10.7°
